Wind_Speed
14 13 13 13 12 11 11 10 9 8 7 6 6 6 6 6 6 6 6 6 7 6 4 2 2 2 1 1 1 1 2 3 4 4 4 5 6 8 10 10 11 15 18 21 23 24 23 22 22 21 21 21 20 19 18 19 20 19 17 16 14 14 14 16 17 17 17 16 17 17 17 18 19 21 22 22 23 23 24 24 24 26 29 31 31
12 13 13 13 12 12 11 11 9 8 8 7 7 7 7 7 7 7 7 7 7 6 4 3 2 2 2 2 2 2 2 3 3 3 3 5 6 7 9 10 11 15 18 21 23 24 24 23 22 22 22 22 21 20 18 19 20 18 17 15 14 13 14 16 17 16 15 15 15 17 17 18 19 21 22 22 23 24 24 24 24 25 27 30 32
12 13 14 13 12 12 11 11 9 9 9 9 9 8 8 7 7 7 7 7 7 6 5 3 3 3 2 2 2 2 1 2 2 2 3 4 6 7 9 10 11 14 18 20 23 25 25 24 23 22 22 22 21 20 19 19 19 18 16 15 14 13 14 16 16 15 14 13 14 15 17 18 19 21 22 22 23 24 25 25 25 25 26 28 30
13 12 13 13 13 13 12 11 10 10 10 10 9 8 8 7 7 8 8 7 7 6 5 4 4 3 2 2 2 2 1 1 1 1 2 4 6 7 9 10 12 14 17 20 23 25 25 25 23 23 22 22 21 20 19 19 19 18 16 15 14 14 14 16 15 14 13 12 12 13 15 17 19 21 21 22 23 24 25 25 25 25 26 27 28
14 14 13 13 13 13 12 12 12 11 10 9 8 8 8 7 8 8 8 7 7 6 6 5 4 3 3 2 2 2 2 2 2 2 3 4 5 7 8 10 12 15 17 20 22 25 25 25 24 23 22 22 21 21 20 19 19 18 17 15 14 14 14 15 14 13 11 11 11 11 13 15 18 20 21 21 22 23 24 25 26 26 26 26 27
14 14 12 13 13 13 13 12 12 10 9 9 9 8 8 8 8 8 8 8 7 6 6 5 5 4 3 3 3 3 3 3 3 2 3 4 5 7 8 11 13 15 18 20 22 24 26 25 24 23 23 22 22 21 21 20 19 18 17 15 15 14 13 14 14 12 11 10 10 10 11 13 17 19 20 20 21 22 23 24 25 26 26 26 26
11 12 13 13 13 14 13 12 11 10 10 10 10 9 8 8 8 8 8 8 7 7 6 6 5 4 3 3 4 4 4 4 4 3 3 4 5 7 9 11 14 15 18 20 22 24 25 25 25 24 23 23 22 22 21 20 19 18 18 16 15 14 13 13 13 11 10 10 9 8 9 11 15 18 19 19 20 21 22 23 24 25 26 26 26
11 12 14 15 14 13 11 11 11 11 11 11 10 9 9 8 8 8 8 8 7 7 6 6 5 5 4 4 5 5 5 5 5 4 4 4 5 7 9 12 15 16 18 19 22 24 25 25 25 25 24 24 23 22 22 21 20 18 18 17 16 15 13 12 12 10 9 9 8 7 7 10 12 15 18 18 19 20 22 22 23 24 25 26 26
11 12 13 13 11 10 9 10 11 11 11 11 11 10 9 8 8 8 8 8 7 6 6 6 5 5 5 5 6 6 6 5 5 4 4 4 5 7 9 12 15 16 18 20 21 23 25 26 26 25 25 24 24 23 22 21 21 19 18 18 17 15 13 11 11 10 9 8 7 6 6 9 11 13 16 17 17 19 21 22 22 23 24 25 25
11 13 13 13 13 12 10 11 11 12 12 11 11 10 9 8 7 8 8 7 7 6 6 5 5 5 5 6 6 6 5 5 5 4 4 5 6 7 8 11 15 17 18 19 21 23 25 26 26 26 25 25 25 24 23 22 22 21 20 18 17 16 14 12 11 10 8 7 6 5 4 7 10 12 14 16 16 17 19 20 21 22 23 24 24
11 15 16 18 18 16 13 12 12 12 12 11 10 9 8 7 7 7 7 7 6 6 5 4 4 4 5 5 6 5 5 5 5 5 5 5 6 7 8 10 13 17 19 20 21 23 25 26 26 26 25 25 25 25 24 24 23 22 21 19 18 17 15 14 12 10 8 7 6 5 3 5 9 11 12 15 15 15 17 18 19 21 22 22 23
13 17 19 19 18 17 15 13 12 12 11 10 9 9 7 7 6 7 7 6 6 5 4 3 3 4 5 5 5 5 6 6 6 6 6 6 6 7 9 11 12 15 18 20 21 22 24 26 26 26 26 25 25 25 25 24 24 23 22 20 19 17 16 15 13 11 9 7 6 5 3 3 7 10 11 13 14 14 15 16 17 19 20 22 22
15 20 21 19 16 15 15 14 12 11 9 8 8 8 7 6 7 7 6 6 5 4 3 3 3 4 4 4 5 5 6 6 6 6 6 5 6 7 9 11 13 14 17 19 21 22 23 25 25 26 26 26 25 25 25 25 24 24 22 21 20 18 18 16 14 12 10 9 7 6 4 2 4 7 8 10 12 13 14 15 15 16 18 20 21
15 19 21 20 17 14 14 13 11 9 8 8 8 7 7 7 7 7 6 6 5 4 3 4 4 5 4 4 5 5 6 5 6 6 5 5 5 6 8 11 13 14 16 18 20 21 22 23 24 25 26 26 26 25 25 25 25 24 23 22 20 20 19 18 16 14 12 11 9 8 6 4 2 5 6 7 9 11 13 13 14 15 16 17 19
14 16 16 18 16 15 13 11 9 8 8 9 8 8 8 8 8 7 6 5 4 4 5 5 6 5 5 5 5 5 5 5 6 6 6 5 5 6 7 9 12 14 16 17 18 20 21 22 23 24 25 26 26 25 25 25 25 25 24 23 21 21 20 19 18 16 14 13 11 10 8 6 4 2 3 4 6 9 11 12 13 14 14 15 17
12 13 13 14 13 14 12 9 8 7 8 9 9 9 8 8 8 7 6 5 5 5 6 6 6 6 6 5 5 5 5 6 6 6 6 6 6 6 7 8 10 13 16 18 18 19 20 22 23 23 24 25 26 26 26 26 26 26 25 24 22 22 21 21 20 18 16 14 14 12 11 9 6 3 1 2 4 6 8 10 11 12 13 13 15
11 9 10 13 13 13 12 9 8 8 9 10 9 9 9 8 8 7 6 5 5 6 7 6 6 6 6 6 6 6 6 7 7 7 7 7 7 7 8 9 9 10 12 15 18 19 19 20 22 23 23 24 25 26 26 27 27 27 26 25 23 23 22 22 22 20 19 17 16 15 13 12 9 6 3 1 2 4 6 7 9 10 11 12 13
9 10 12 13 13 13 11 9 8 8 9 9 9 9 9 8 7 6 5 5 6 7 7 6 6 6 7 7 6 7 7 8 8 8 8 8 8 9 9 10 10 10 9 11 13 17 19 20 21 22 23 24 25 25 26 28 28 28 27 25 24 24 24 24 23 22 21 19 18 17 16 14 11 9 6 4 3 3 4 5 7 8 9 10 11
11 14 14 11 11 10 9 8 8 8 8 8 9 9 8 7 6 5 5 6 6 6 6 6 7 7 7 7 7 8 8 9 9 10 10 10 10 10 11 11 11 11 10 10 10 12 15 19 21 22 22 24 25 25 26 27 29 29 28 26 25 25 25 24 24 24 23 21 20 19 18 16 13 11 9 7 6 5 5 5 5 6 7 8 9
16 17 15 11 8 8 8 9 10 10 9 9 9 8 7 6 5 5 5 6 6 6 6 7 7 8 8 8 9 10 10 10 10 10 11 11 11 12 12 12 12 12 12 11 11 10 11 14 18 21 22 23 25 26 26 27 28 29 30 28 26 26 26 25 25 25 24 23 21 20 19 18 15 13 11 10 9 8 7 6 5 5 5 6 7
20 20 17 14 12 13 11 10 11 11 11 10 9 8 7 6 5 4 5 6 6 6 7 7 7 8 9 9 10 11 12 12 11 11 12 11 11 12 12 13 13 13 13 13 12 11 11 12 14 17 20 22 24 25 27 28 28 29 30 29 28 27 27 26 26 25 25 24 23 22 21 20 18 16 14 13 11 10 9 7 6 5 4 4 5
23 22 19 16 15 16 15 13 12 12 11 11 10 8 6 5 5 5 6 6 5 6 7 7 7 9 10 11 12 12 13 12 12 12 12 12 11 11 12 13 13 13 13 14 14 13 12 13 14 15 17 19 22 24 26 27 29 29 30 30 28 28 28 27 27 26 25 25 24 23 22 21 20 19 17 16 14 13 11 10 8 6 5 4 4
23 21 19 17 17 18 16 15 13 12 11 10 9 7 6 5 5 5 6 5 6 7 7 7 8 9 11 12 13 14 14 13 13 13 13 13 12 12 11 12 13 12 12 12 13 13 13 13 13 14 16 17 19 22 24 26 28 30 31 30 28 29 29 29 28 27 26 25 25 23 22 22 21 21 19 18 16 14 13 12 9 8 6 5 4
20 18 18 18 19 18 17 15 14 12 11 10 8 6 6 5 5 5 6 6 7 8 8 8 9 11 13 14 15 16 15 14 14 14 14 14 13 13 12 13 12 12 11 11 12 13 13 12 12 12 14 16 18 20 22 24 26 29 31 31 29 28 29 29 29 28 26 26 25 24 23 22 22 21 21 20 18 16 15 13 11 9 8 6 5
18 18 18 17 17 17 16 14 13 12 10 9 7 7 6 5 5 6 7 7 8 9 9 10 11 13 15 16 17 17 16 16 15 15 15 14 13 13 13 13 12 11 11 10 11 11 11 11 10 10 11 13 16 18 20 21 24 27 29 30 29 28 28 29 30 29 27 27 26 25 24 23 22 21 21 20 19 18 16 15 13 11 9 8 7
19 18 17 16 16 15 14 13 11 10 9 8 7 6 6 5 6 7 7 8 9 10 11 12 13 14 15 16 17 17 17 18 17 16 15 14 13 12 12 12 11 10 10 10 9 9 9 9 8 8 7 9 14 17 19 20 22 24 26 28 28 28 28 27 28 29 28 27 26 26 25 24 23 22 21 20 20 19 18 17 15 13 12 10 9
19 18 17 16 15 13 12 11 10 9 7 6 5 5 5 5 6 7 8 9 11 12 13 13 14 15 15 16 17 17 18 18 18 16 15 14 12 10 9 10 10 10 10 9 8 8 9 9 8 7 5 6 9 14 17 19 21 23 24 25 26 27 27 26 27 27 28 27 27 26 26 26 25 24 22 21 20 19 19 18 17 15 14 13 11
20 18 17 16 14 12 10 9 7 6 5 5 4 4 4 4 7 9 10 11 12 13 14 14 15 15 16 16 16 17 18 18 17 16 15 14 13 10 8 9 10 10 10 9 9 9 10 10 9 8 6 5 5 9 13 18 20 22 23 23 24 25 25 25 25 26 27 27 27 26 27 26 25 25 23 22 21 20 20 19 17 16 15 14 13
20 18 17 17 14 11 9 7 5 4 4 4 4 4 4 6 8 9 11 12 13 14 14 15 15 16 16 17 17 17 17 17 17 16 14 13 12 10 8 10 11 11 10 10 10 11 11 10 10 9 7 6 5 6 9 14 18 20 21 22 23 24 23 23 24 25 26 26 26 26 26 26 25 25 24 22 21 20 20 20 18 17 16 15 14
20 20 17 15 12 9 8 6 4 3 4 3 3 4 4 6 7 9 11 12 13 13 14 15 15 16 16 16 17 17 17 17 17 16 14 13 11 9 10 11 11 11 11 12 12 12 12 12 11 10 9 8 6 6 7 10 15 19 20 21 22 23 22 22 23 24 25 25 25 25 25 24 24 24 23 22 21 20 20 20 19 18 17 16 15
20 19 16 13 11 8 6 4 2 2 3 2 2 2 3 4 6 8 10 11 12 13 13 14 15 16 16 16 17 17 16 16 16 15 14 13 12 11 12 12 12 12 13 13 14 14 14 14 12 11 11 9 8 7 7 8 12 17 20 21 22 22 21 21 22 23 24 24 25 25 24 23 23 23 22 21 21 20 19 19 18 18 17 16 15
19 17 15 12 10 8 7 5 4 2 3 3 3 2 2 3 5 7 9 11 12 13 13 13 14 16 16 16 16 16 15 15 15 14 13 13 13 13 13 13 13 14 15 15 15 16 16 15 13 12 12 11 10 8 8 7 9 12 16 18 20 21 21 21 21 22 23 24 24 24 24 22 21 21 21 20 20 19 19 18 18 17 16 16 15
16 15 13 12 10 11 11 8 6 6 6 6 5 3 1 1 3 4 7 9 11 12 13 14 14 15 16 16 15 14 14 13 13 13 13 13 13 13 13 14 14 15 16 17 16 16 16 15 13 12 12 12 11 10 8 7 6 8 10 13 16 19 20 20 20 21 22 22 23 23 23 21 20 20 20 19 19 19 18 17 17 17 16 16 16
13 12 13 13 11 13 14 11 9 10 8 7 5 3 3 3 3 4 6 8 10 11 13 14 16 16 16 17 16 14 12 11 12 12 12 13 13 12 13 14 15 16 17 17 16 16 15 14 12 11 12 13 12 10 8 5 4 5 6 8 11 15 18 19 19 20 20 21 22 23 23 21 20 20 19 19 19 19 18 17 17 17 16 16 16
15 14 15 12 9 13 14 13 13 11 9 8 6 5 5 5 5 7 9 11 11 11 12 14 15 16 16 16 16 14 12 11 12 13 13 13 13 13 14 15 16 16 17 16 15 14 14 13 13 12 13 14 13 11 9 6 5 5 6 6 8 11 14 16 18 17 18 19 20 22 23 21 20 19 19 19 19 19 19 18 17 17 17 17 17
17 15 15 12 11 14 15 15 14 11 9 8 7 6 5 6 7 8 11 13 13 12 12 13 14 16 16 16 16 15 13 12 13 15 15 14 13 14 15 16 16 15 15 15 13 12 12 13 13 13 14 14 13 12 11 9 8 9 8 7 7 8 10 13 15 16 16 17 18 20 21 21 20 20 19 18 17 18 19 19 18 17 16 16 16
19 16 16 15 15 16 17 15 12 10 8 7 6 5 5 6 7 9 11 14 14 13 11 12 14 15 15 16 16 15 14 13 14 16 17 15 14 14 15 16 16 16 15 14 12 11 11 13 14 15 14 13 13 14 13 12 11 11 11 11 10 9 9 10 12 14 15 15 16 17 18 19 19 19 19 18 16 16 17 18 17 17 16 15 15
19 14 16 18 17 18 17 13 12 9 8 7 5 4 5 5 7 9 12 15 16 15 12 10 11 13 14 15 16 16 15 15 15 16 17 17 15 14 15 16 16 16 16 14 12 11 11 13 14 15 15 14 14 15 16 15 14 13 13 13 11 9 9 10 11 13 13 14 14 14 14 15 16 16 18 18 17 17 17 16 16 16 15 15 15
16 8 13 18 17 18 16 13 12 10 8 6 5 4 3 4 7 9 12 15 17 16 13 10 9 10 11 13 15 16 17 17 18 18 17 17 16 15 15 16 17 17 16 13 11 10 11 12 13 14 14 14 15 15 16 17 16 15 14 14 11 8 9 11 11 11 13 13 13 13 13 13 14 15 16 17 16 16 17 16 16 15 15 15 15
17 9 13 19 18 19 17 14 13 10 8 6 5 3 2 4 7 10 12 16 18 17 15 11 8 7 8 9 11 13 16 17 18 18 18 17 16 16 15 16 16 16 16 14 12 12 11 12 13 14 14 14 14 15 16 17 17 16 14 13 11 8 9 11 11 12 13 14 14 13 13 13 15 15 15 15 15 15 14 15 15 15 16 16 16
19 15 16 20 20 20 18 15 13 10 8 6 4 3 2 5 8 10 12 15 18 18 16 13 10 8 7 7 8 10 12 14 16 18 19 19 18 17 16 16 15 14 14 13 13 12 12 12 13 14 14 15 15 15 16 17 17 15 13 12 10 9 9 11 12 13 14 15 15 14 14 14 14 16 16 15 15 14 12 12 12 13 14 15 16
16 15 17 21 21 21 19 15 13 10 9 7 5 3 2 5 7 9 11 14 16 17 16 14 11 8 7 7 7 8 10 11 13 15 18 20 20 20 18 17 16 15 14 14 12 12 12 12 13 13 14 15 16 15 16 17 16 14 13 12 11 10 10 11 13 14 13 13 15 15 16 16 16 16 17 16 16 15 14 14 13 12 13 14 14
14 15 17 20 22 22 19 16 14 12 10 8 5 2 1 4 6 8 11 13 14 16 16 14 12 9 7 6 7 7 8 9 10 12 14 16 19 20 20 18 17 17 16 15 14 13 12 13 13 14 14 15 15 15 16 17 16 14 13 13 12 12 12 13 13 13 11 12 16 17 18 18 17 17 17 18 17 17 17 17 17 16 16 16 15
15 17 18 21 23 22 19 17 15 14 12 9 6 3 1 2 5 7 10 12 14 15 16 15 13 11 8 6 6 6 6 7 8 10 11 12 14 16 17 17 17 17 16 16 15 14 14 14 15 15 16 14 13 14 16 18 16 13 13 13 13 14 13 13 13 12 11 11 14 17 18 18 17 17 18 19 20 21 20 20 19 19 19 19 18
14 18 19 21 23 22 19 17 17 15 13 10 8 5 2 2 4 6 9 11 13 15 16 16 15 13 10 8 7 6 4 5 6 8 9 10 11 12 13 14 14 15 15 14 14 15 15 16 17 16 16 14 13 14 15 17 15 13 13 14 14 15 14 13 13 12 12 11 13 15 16 17 17 17 18 19 21 23 21 20 18 18 19 19 19
13 16 18 20 23 22 19 18 18 17 15 12 9 6 4 3 3 5 7 10 12 14 15 15 14 13 11 10 9 7 5 4 5 6 7 8 8 9 10 10 11 12 12 12 12 14 15 17 17 17 16 15 15 15 16 15 14 13 14 15 15 15 15 14 14 14 14 13 15 16 15 16 16 17 18 19 22 22 20 17 15 16 18 17 17
14 15 17 21 23 23 20 19 19 18 16 13 11 8 5 4 5 6 7 9 11 13 14 14 13 13 12 10 10 9 7 5 4 6 6 7 7 7 7 7 8 8 9 9 9 11 13 15 17 17 17 17 16 16 17 16 15 15 16 16 16 16 16 15 15 15 16 15 16 17 16 15 16 17 18 20 21 19 18 16 15 17 18 16 17
15 16 18 21 24 24 22 21 21 19 17 15 12 9 7 6 6 6 7 8 10 11 12 13 12 11 11 10 9 8 7 6 4 5 6 7 6 6 5 6 6 6 6 7 8 9 10 12 14 16 17 17 17 17 16 15 14 15 16 15 15 16 15 15 16 16 17 17 16 16 16 16 17 18 17 18 16 14 14 13 14 16 17 19 19
14 17 18 21 24 25 24 23 23 21 18 16 13 10 8 8 7 7 7 8 9 9 11 11 10 9 9 8 8 8 7 5 4 3 4 5 5 4 4 4 4 5 6 6 7 7 8 9 10 12 14 15 16 16 15 14 13 14 14 14 14 14 14 14 16 16 17 18 17 16 16 17 17 17 16 15 14 12 12 12 12 13 15 18 18
13 17 19 21 24 26 26 26 24 22 19 17 15 12 10 9 7 8 9 8 7 8 9 10 9 8 8 8 8 7 7 6 4 2 2 2 3 4 4 3 3 4 4 5 5 5 5 5 6 7 9 10 12 13 13 13 12 11 12 12 12 12 12 13 14 14 15 15 15 14 15 16 17 16 14 13 12 12 12 13 13 13 13 15 16
12 16 19 21 22 24 27 28 27 24 21 18 16 14 13 12 10 11 12 8 6 6 7 8 8 8 8 8 8 8 8 7 5 4 3 2 1 2 3 4 4 4 4 3 3 3 3 3 3 3 5 6 8 9 10 11 11 10 10 10 10 10 11 12 13 14 14 13 13 13 13 15 15 14 13 13 13 13 14 14 13 13 12 12 14
Wind_Direction
203 199 184 179 187 186 175 169 167 166 170 175 186 198 210 218 227 231 226 220 211 198 188 201 201 186 190 194 204 225 236 224 214 215 213 213 207 197 189 182 178 175 174 174 174 175 174 171 168 164 161 160 160 159 154 148 142 143 146 142 139 132 124 112 103 99 96 93 88 83 77 72 69 66 62 60 57 56 55 55 55 54 54 53 54
211 206 188 181 188 188 176 170 167 165 171 177 188 198 206 214 222 225 222 220 213 200 195 206 202 190 188 187 194 206 223 213 199 205 215 218 220 210 195 187 183 178 176 176 176 177 176 174 172 168 165 165 164 163 158 152 147 148 150 145 140 134 126 115 107 103 98 95 91 87 81 75 71 67 63 60 58 56 55 54 54 54 55 54 53
204 206 185 179 186 187 176 169 165 167 175 182 188 196 203 211 218 221 219 217 213 203 198 206 205 196 191 188 182 192 193 193 188 200 218 217 221 218 201 190 186 180 178 178 177 179 179 178 175 172 170 170 169 167 161 157 153 152 152 147 141 136 128 119 113 108 102 96 92 89 84 79 73 69 64 60 58 56 55 54 54 54 54 54 54
189 192 181 179 184 183 173 167 169 176 180 182 186 194 202 211 217 218 217 215 213 209 205 210 208 203 198 191 176 171 164 183 203 207 218 217 220 221 209 193 187 183 181 181 180 181 181 181 179 176 175 174 174 171 165 163 159 156 155 150 143 139 132 124 119 114 108 101 93 89 86 82 77 71 65 61 59 57 56 55 53 53 53 54 54
192 184 180 181 185 177 169 172 175 179 177 178 184 193 203 211 218 216 216 215 216 216 215 216 211 208 208 200 187 178 172 190 217 221 213 215 219 222 217 200 190 185 183 184 183 184 184 184 183 181 180 179 179 177 171 168 165 161 159 154 146 142 137 130 126 122 115 105 96 89 86 83 79 73 66 62 59 58 57 55 54 52 52 53 53
213 199 190 185 187 176 171 175 175 176 173 177 184 193 203 210 217 216 216 218 219 221 219 218 214 213 216 212 204 199 191 193 207 223 217 213 216 221 220 205 193 189 187 186 186 187 188 188 187 185 184 183 184 183 178 174 171 167 163 159 151 147 143 136 133 129 121 111 100 91 86 83 80 76 68 62 59 57 56 54 54 53 52 52 52
221 214 206 194 193 184 175 171 171 174 174 180 185 192 200 208 214 215 217 220 222 224 223 220 216 217 219 220 217 213 205 201 202 212 223 218 213 217 219 206 196 194 191 188 188 190 191 191 191 190 189 188 188 187 184 180 178 174 168 163 157 152 150 144 141 136 128 117 105 96 89 83 80 78 71 63 59 57 55 53 53 52 52 51 51
221 213 205 198 198 189 173 167 170 176 177 180 185 190 195 205 213 216 220 223 226 226 226 223 221 224 226 228 223 221 216 209 207 209 219 223 215 214 216 207 200 199 195 192 192 193 194 194 194 194 193 193 192 192 190 187 183 181 175 169 164 158 158 157 150 144 135 125 113 103 94 86 80 78 74 64 58 57 55 53 51 51 51 50 50
224 209 201 203 203 192 176 171 172 176 178 180 184 187 191 203 213 218 223 226 228 227 225 224 226 230 234 235 228 228 227 219 214 215 218 223 223 218 217 210 205 203 198 196 195 195 196 197 198 197 197 197 196 195 194 192 190 188 183 176 171 164 163 169 162 154 148 135 124 114 98 87 80 77 76 68 59 57 56 53 50 50 50 49 49
222 206 200 206 209 205 194 179 174 176 179 181 183 184 189 202 213 220 224 228 228 225 223 223 228 236 239 237 233 235 237 235 228 224 221 225 232 227 221 215 210 206 201 199 199 198 199 200 202 201 200 200 200 200 197 197 195 193 191 184 177 170 167 175 173 165 160 149 138 128 104 87 81 75 74 71 62 56 55 53 50 49 48 48 48
222 206 199 201 206 206 195 181 175 177 179 180 183 184 189 200 214 221 224 228 225 223 222 222 232 239 239 235 236 240 246 250 245 233 224 226 235 236 232 224 214 209 205 202 202 201 202 203 205 204 203 203 204 204 202 201 200 198 196 191 184 176 175 183 182 175 172 164 155 146 124 94 81 75 72 71 64 57 55 52 50 47 47 47 47
226 206 199 199 199 194 182 175 173 173 176 179 184 183 187 202 216 223 225 227 224 221 221 226 231 231 230 232 241 249 256 256 251 241 231 229 236 242 241 234 222 213 208 205 205 205 205 205 207 208 206 206 207 207 207 205 204 203 200 197 191 184 187 192 191 186 187 187 177 168 159 117 87 76 70 68 64 58 54 51 49 46 45 45 45
235 213 206 200 187 179 172 165 164 165 170 181 187 183 189 205 217 223 226 225 219 215 218 217 210 215 222 235 251 258 261 259 256 249 241 236 237 246 248 243 232 221 214 209 208 208 208 207 209 211 210 210 211 210 211 210 209 208 205 201 196 194 196 197 197 195 194 200 198 185 185 176 109 86 70 65 62 56 52 50 47 45 43 43 43
237 217 212 207 187 172 166 157 155 160 173 188 188 186 196 206 217 223 223 219 214 210 202 197 199 210 223 238 252 257 260 260 258 253 249 243 237 243 249 249 240 230 221 215 212 210 211 210 211 214 214 214 214 214 214 214 213 212 210 206 201 201 203 201 203 202 198 200 206 201 199 214 167 104 78 62 59 55 49 47 44 42 41 41 41
229 220 222 218 188 160 153 150 155 168 183 189 188 191 201 208 215 218 218 216 209 199 191 195 205 214 222 233 243 250 253 252 253 252 250 244 236 236 242 248 245 237 228 222 217 214 214 213 213 215 217 217 218 218 217 217 217 215 213 210 206 206 207 207 207 208 204 200 205 209 209 218 214 140 90 58 51 52 46 42 41 38 38 37 38
224 231 227 211 173 147 148 154 169 186 193 189 191 197 202 208 212 213 212 209 199 192 196 205 212 218 226 233 240 245 246 246 246 246 245 243 239 235 235 240 241 239 233 227 224 221 219 218 216 216 218 219 220 221 221 221 220 218 216 213 211 211 212 212 213 212 210 204 203 210 215 218 219 207 124 46 35 42 39 35 35 34 33 33 34
228 225 201 184 157 148 159 171 188 197 197 193 194 198 203 206 206 207 204 200 197 198 206 213 219 227 233 236 240 243 243 244 245 244 244 243 239 235 234 236 238 237 234 231 228 225 224 223 220 219 220 221 222 223 224 224 224 222 219 216 213 214 216 216 217 216 214 210 205 210 216 218 220 222 228 287 349 19 26 25 26 28 29 29 30
199 178 172 170 158 160 167 175 195 203 201 198 198 199 201 202 203 205 205 204 204 207 212 217 226 234 238 240 242 243 244 248 252 253 250 245 239 234 232 234 238 238 236 233 229 226 225 225 225 224 224 224 224 224 225 227 227 226 223 219 216 217 219 219 220 220 219 215 210 211 216 219 221 224 231 251 281 326 352 7 14 20 24 25 26
162 160 167 168 159 164 173 184 201 210 209 204 203 204 203 205 208 211 213 214 215 215 217 224 233 237 240 243 244 245 248 253 258 258 252 244 239 236 235 233 235 239 240 238 232 226 224 224 226 227 227 227 227 227 227 228 229 229 227 223 219 219 221 222 223 224 224 221 217 215 218 220 222 225 230 242 260 284 310 333 352 7 14 20 22
164 160 166 171 175 188 196 202 207 212 210 206 207 211 215 216 215 213 217 224 225 224 228 234 237 239 242 244 246 247 250 254 258 255 247 243 241 239 237 236 236 238 239 239 236 230 223 223 224 226 227 228 229 229 229 230 230 231 230 227 223 222 223 224 225 227 228 227 224 222 222 224 224 226 230 240 252 266 283 301 320 342 357 10 17
174 170 174 180 193 204 208 212 213 211 206 207 213 215 218 217 211 212 225 230 229 231 235 235 237 239 241 243 246 249 251 254 256 253 247 245 245 241 238 237 238 238 238 238 238 235 229 225 224 225 227 228 228 230 231 232 232 232 232 229 225 225 225 226 227 228 230 231 231 228 228 229 229 230 234 241 249 260 270 280 292 310 329 348 5
181 182 188 190 196 199 203 211 211 206 204 208 212 213 213 212 213 222 231 231 229 234 234 232 236 238 240 243 246 250 252 253 256 258 256 252 249 243 238 237 238 241 241 239 238 238 236 230 227 226 227 228 228 229 231 233 234 233 233 231 227 226 227 228 229 229 230 232 234 234 233 234 235 236 239 243 249 255 262 268 275 284 297 316 339
185 189 193 192 191 193 196 199 198 198 202 207 207 207 210 211 219 230 234 229 229 232 233 234 237 240 243 244 245 247 249 252 256 261 261 256 250 245 240 238 239 241 242 241 240 240 240 237 232 231 231 230 229 228 229 232 234 234 235 233 229 227 228 228 230 230 229 232 235 237 237 238 239 241 243 246 248 252 256 260 264 268 275 287 305
185 190 191 188 188 188 188 186 187 192 198 202 203 206 211 214 222 233 232 226 228 232 236 238 237 240 243 244 244 244 247 251 256 260 260 255 250 247 242 239 238 239 242 243 244 244 245 245 242 238 235 233 231 229 229 230 233 235 235 235 231 228 228 229 230 231 230 230 234 237 239 240 242 243 245 247 249 250 252 255 256 259 263 269 280
185 189 188 187 186 181 179 182 186 191 195 199 204 209 211 214 225 234 234 232 236 240 243 243 241 241 243 245 246 246 249 251 254 256 257 256 252 247 242 238 236 240 246 248 250 250 251 253 251 245 238 236 234 232 231 231 233 236 236 236 234 231 230 230 231 232 231 231 233 236 239 241 242 243 245 247 248 250 251 252 252 254 258 261 266
185 186 183 180 180 178 180 185 190 194 197 202 207 211 213 218 232 239 241 241 245 249 252 250 247 246 246 248 249 250 251 252 254 254 255 255 252 246 239 235 235 240 249 253 256 257 255 254 253 250 241 235 236 235 233 232 234 237 238 239 236 234 232 231 232 234 234 233 233 236 239 241 242 243 244 245 247 249 251 251 252 254 256 257 259
183 180 177 174 177 180 182 186 190 194 196 202 208 214 219 226 241 250 253 251 255 258 258 257 254 252 250 250 252 253 253 255 256 256 255 253 249 245 238 232 232 236 242 248 253 255 253 251 250 250 244 231 232 235 235 233 234 237 239 241 240 237 235 233 234 235 236 235 235 235 238 241 242 243 244 245 245 248 250 251 252 253 255 255 256
183 179 174 172 174 176 179 185 185 184 191 202 211 223 235 245 259 264 266 264 265 266 264 262 261 259 254 250 252 255 256 256 256 256 257 251 246 248 243 231 228 230 232 234 240 247 249 251 252 250 245 235 225 228 233 234 233 236 239 241 243 241 237 236 235 236 237 236 236 235 237 240 242 244 245 246 246 247 249 251 251 252 254 254 254
184 179 173 169 167 168 172 178 181 186 203 215 228 247 258 265 271 272 271 269 269 269 268 266 265 263 258 253 253 255 257 257 255 255 255 251 248 248 241 230 228 227 227 225 227 237 244 248 250 251 248 246 237 220 225 233 233 234 237 240 243 244 240 237 236 237 238 237 237 237 237 239 241 244 246 247 246 247 249 250 251 251 252 253 254
183 177 170 162 157 163 174 180 192 204 207 224 248 262 270 273 273 273 271 270 270 270 269 268 266 264 262 259 257 256 257 257 256 253 251 250 248 241 234 230 225 220 222 221 220 229 237 241 245 249 250 250 245 225 215 227 231 231 234 237 241 244 242 238 236 237 238 239 240 240 239 239 240 243 245 247 246 247 248 250 251 251 251 252 254
177 170 162 154 152 161 186 191 186 199 200 215 231 244 256 266 272 274 275 274 274 273 271 269 267 266 266 263 259 256 256 257 256 253 249 247 244 236 233 231 221 217 221 221 220 224 231 237 240 246 251 252 250 240 225 222 228 229 231 234 238 242 243 240 238 237 238 240 240 242 241 239 238 240 243 244 245 245 246 248 250 251 252 251 252
167 161 159 163 160 159 183 176 142 171 188 176 174 189 227 269 285 287 286 284 281 277 275 271 266 266 265 264 261 258 257 256 255 254 249 243 241 238 235 231 223 220 223 224 224 226 229 234 240 246 251 256 256 253 246 233 231 233 232 234 237 241 242 241 239 237 238 238 239 240 241 238 236 237 239 241 242 242 243 245 248 250 252 251 250
164 158 164 176 169 168 184 171 154 183 180 164 163 163 147 356 327 315 309 302 294 285 277 271 265 263 263 265 265 261 258 255 253 252 246 241 238 236 234 231 227 226 225 227 229 230 231 234 240 244 251 258 261 262 259 246 239 243 239 236 238 241 244 244 242 240 239 238 238 239 239 235 232 232 234 236 238 240 240 241 243 246 248 248 246
175 178 182 184 180 186 192 181 175 183 171 157 150 126 95 75 49 19 357 335 316 299 284 273 266 263 264 267 266 260 255 253 252 247 240 238 237 234 233 232 230 228 228 229 230 232 234 237 242 246 253 261 265 269 266 250 241 248 245 240 239 241 244 246 246 244 243 241 240 241 242 237 231 230 230 232 234 237 238 239 240 242 243 245 244
185 196 193 190 198 201 195 185 181 177 162 152 137 115 97 79 54 33 16 357 336 313 291 276 268 264 263 265 264 257 249 248 250 247 239 237 237 233 232 234 234 232 232 233 235 237 236 238 244 249 255 258 260 264 257 240 241 247 244 242 239 240 243 245 246 246 245 244 242 244 246 243 238 235 233 233 234 236 238 239 239 241 242 243 242
182 190 194 197 205 200 194 187 178 168 157 143 126 109 88 69 45 30 18 6 351 329 299 277 266 261 258 258 261 259 252 246 247 249 246 242 237 233 232 236 239 240 239 241 244 246 243 240 240 243 249 250 250 252 247 238 244 256 262 264 258 248 243 242 245 245 245 244 243 243 244 244 242 239 237 236 236 239 241 241 239 239 240 242 244
176 186 195 197 199 196 194 186 172 162 153 136 121 104 81 59 38 28 19 13 4 349 321 287 265 257 255 254 257 258 257 253 250 252 254 251 244 237 238 242 246 249 250 254 257 260 254 242 236 239 245 244 243 245 245 240 242 258 272 276 275 263 249 241 240 241 242 242 241 241 243 244 244 240 238 238 238 241 244 244 243 242 241 242 245
177 189 196 194 196 198 194 184 173 164 155 143 126 101 74 50 32 26 21 17 15 6 347 315 281 263 255 252 253 254 255 255 254 255 257 256 251 246 245 249 255 258 260 263 266 267 259 248 244 246 247 245 245 245 244 242 241 253 269 275 279 273 259 250 242 237 236 237 237 240 242 243 245 245 242 240 240 242 245 246 246 245 244 244 246
179 185 197 193 191 198 197 185 175 167 161 154 131 109 73 43 28 23 20 19 20 16 3 343 311 282 265 255 254 255 254 253 253 255 257 257 256 253 252 254 258 262 264 266 265 264 261 257 254 251 249 249 250 247 245 245 245 252 263 269 272 267 258 259 254 240 235 236 238 241 243 245 247 247 245 242 240 241 243 245 246 245 244 245 246
193 188 195 189 188 199 200 188 180 172 169 161 141 134 78 37 25 21 18 19 20 20 13 360 338 308 284 267 259 259 258 257 255 255 256 258 259 259 258 259 262 265 269 268 261 259 261 260 256 254 257 255 252 248 245 246 247 250 256 260 262 256 250 257 259 250 244 241 238 239 243 247 249 250 249 246 243 241 239 239 241 241 242 244 246
198 190 188 188 191 198 196 189 185 176 175 173 165 167 61 34 26 18 15 18 20 20 17 10 357 332 311 290 271 264 263 263 261 257 255 256 259 261 261 263 265 269 271 270 263 259 259 258 259 262 265 262 257 252 248 248 247 247 252 253 253 250 245 247 251 256 253 243 237 239 243 248 251 251 251 248 242 238 234 233 235 236 236 239 242
199 196 194 192 194 198 194 189 187 182 187 191 185 188 36 30 23 13 11 17 21 20 18 14 8 349 324 303 284 270 264 264 263 260 257 256 257 260 262 265 267 269 270 271 268 263 259 259 262 265 266 263 260 258 254 253 249 247 251 252 249 250 251 252 255 260 257 239 234 241 246 250 252 250 249 246 241 236 233 233 235 234 233 234 234
213 214 207 199 198 201 197 190 191 192 198 203 200 209 12 23 14 6 5 11 18 20 18 14 15 9 349 323 300 284 271 266 264 263 261 258 258 260 263 266 269 270 270 270 269 265 260 258 260 262 261 253 249 255 256 254 248 242 246 249 251 254 256 262 266 268 260 239 236 242 245 248 250 249 245 244 243 244 245 246 248 246 241 238 234
217 214 210 204 203 205 201 194 195 198 204 212 215 227 293 358 360 359 359 4 11 16 16 11 12 15 10 354 330 309 287 274 268 267 265 263 261 262 264 267 269 268 267 267 265 261 256 253 253 255 256 248 241 251 255 254 251 244 246 249 251 253 255 262 266 267 263 249 245 248 250 254 256 252 248 244 241 240 241 244 250 252 248 243 241
217 212 210 210 209 208 205 200 201 204 208 213 219 229 247 302 338 346 352 358 4 12 13 7 7 12 12 5 352 335 306 278 267 265 264 264 264 263 264 265 266 264 263 261 257 253 248 247 248 249 253 251 247 252 253 255 255 251 251 251 249 250 252 256 258 258 259 257 257 256 257 261 262 261 260 258 252 245 239 235 236 241 243 242 243
223 219 219 221 218 215 212 207 209 211 211 217 224 230 235 255 301 326 341 353 1 8 9 4 4 9 11 10 2 349 330 291 261 256 256 259 262 264 264 264 265 265 263 259 253 250 246 244 246 246 248 248 247 250 251 252 254 251 250 248 247 248 247 248 250 252 252 254 259 261 260 260 262 266 269 272 269 262 254 244 235 238 241 241 240
228 226 228 229 224 221 220 218 218 217 216 220 226 228 236 250 276 309 333 350 359 4 5 1 1 5 10 11 6 356 343 317 277 255 247 247 251 259 266 269 271 270 266 260 252 249 246 243 244 244 245 245 244 245 248 250 251 251 248 245 245 247 246 245 247 250 250 251 256 261 264 263 264 266 267 272 273 268 260 253 248 249 251 249 243
228 227 229 229 226 225 226 226 225 223 221 224 227 229 235 252 276 306 329 345 353 358 360 357 358 2 6 9 7 0 349 333 304 270 253 244 241 247 258 267 271 267 260 254 248 245 244 242 243 244 245 245 244 243 245 248 248 248 247 246 249 251 250 248 247 248 248 249 253 260 266 267 265 266 269 275 278 279 277 274 267 263 261 257 250
227 227 229 232 230 229 229 230 230 228 225 226 227 229 235 253 278 305 321 337 345 351 358 355 352 357 1 6 7 4 358 347 327 292 265 249 239 234 236 250 264 262 252 245 245 246 248 248 248 249 250 250 248 245 243 244 243 243 246 249 251 254 254 252 251 250 247 247 250 255 263 264 262 264 270 275 278 282 286 285 282 278 274 270 265
223 228 231 234 233 231 230 232 232 230 228 227 227 230 239 253 272 292 302 318 332 340 354 353 348 350 356 6 10 9 12 8 357 340 311 258 227 217 212 211 232 255 255 243 242 249 254 258 258 255 255 253 251 246 240 240 240 240 244 247 248 250 251 250 252 252 248 248 252 257 260 260 259 260 262 264 269 276 279 279 279 280 282 282 279
210 220 226 230 233 233 232 230 229 228 226 225 227 231 238 248 260 274 284 298 311 324 346 349 341 345 357 10 16 18 21 21 19 16 14 24 181 199 192 187 191 208 226 227 228 238 246 252 249 247 252 253 250 245 239 236 236 235 237 238 239 243 246 248 249 245 239 240 246 252 253 253 254 254 254 258 267 276 278 278 277 279 282 281 277
Height
3139 3140 3141 3142 3143 3143 3143 3143 3144 3145 3145 3145 3146 3146 3146 3146 3146 3147 3147 3148 3148 3148 3148 3149 3149 3150 3150 3150 3150 3150 3151 3151 3151 3151 3151 3151 3151 3152 3152 3153 3153 3154 3155 3156 3157 3158 3159 3160 3160 3161 3161 3162 3162 3163 3164 3164 3165 3166 3166 3167 3167 3168 3168 3168 3168 3169 3169 3169 3170 3170 3170 3169 3169 3168 3168 3167 3167 3166 3165 3165 3164 3163 3162 3160 3159
3140 3140 3141 3142 3143 3143 3143 3144 3144 3145 3145 3145 3145 3145 3145 3146 3146 3147 3147 3148 3148 3149 3149 3149 3150 3150 3150 3150 3151 3151 3151 3151 3151 3151 3152 3152 3152 3152 3153 3153 3154 3154 3155 3156 3157 3158 3159 3160 3161 3161 3162 3162 3163 3164 3164 3165 3166 3166 3167 3168 3168 3169 3169 3169 3169 3170 3170 3171 3171 3171 3171 3170 3170 3170 3169 3169 3168 3167 3167 3166 3165 3164 3163 3162 3161
3140 3140 3141 3142 3143 3144 3143 3143 3144 3144 3144 3145 3145 3145 3146 3146 3146 3147 3147 3148 3148 3149 3149 3149 3150 3150 3151 3151 3151 3151 3151 3151 3151 3152 3152 3152 3152 3152 3153 3154 3154 3155 3156 3157 3158 3159 3160 3160 3161 3162 3162 3163 3163 3164 3165 3166 3166 3167 3168 3168 3169 3170 3170 3170 3170 3171 3171 3172 3172 3172 3172 3172 3171 3171 3170 3170 3169 3168 3168 3168 3167 3166 3165 3164 3163
3138 3139 3140 3141 3143 3143 3143 3143 3143 3143 3144 3144 3145 3146 3146 3146 3147 3147 3147 3148 3149 3149 3149 3150 3150 3151 3151 3151 3152 3152 3152 3152 3152 3152 3152 3152 3153 3153 3153 3154 3155 3155 3156 3157 3158 3159 3160 3160 3161 3162 3163 3163 3164 3165 3165 3166 3167 3167 3168 3169 3170 3170 3170 3171 3171 3172 3172 3173 3173 3173 3173 3173 3172 3172 3171 3171 3171 3170 3169 3169 3168 3167 3166 3165 3164
3136 3138 3139 3141 3142 3142 3142 3142 3142 3143 3144 3145 3145 3146 3146 3146 3147 3147 3148 3148 3149 3149 3149 3150 3150 3151 3151 3152 3152 3152 3152 3152 3152 3152 3152 3153 3153 3153 3154 3154 3155 3156 3156 3157 3158 3159 3160 3161 3162 3162 3163 3164 3164 3165 3166 3166 3167 3168 3169 3169 3170 3171 3171 3171 3172 3173 3173 3174 3174 3175 3175 3174 3174 3173 3173 3173 3172 3172 3171 3170 3170 3169 3168 3167 3166
3136 3137 3139 3141 3141 3142 3141 3142 3143 3144 3144 3145 3145 3145 3146 3146 3147 3147 3148 3148 3149 3149 3150 3150 3151 3151 3151 3152 3152 3152 3152 3152 3152 3152 3152 3153 3153 3154 3154 3155 3155 3156 3156 3157 3158 3159 3160 3161 3162 3163 3163 3164 3164 3165 3166 3167 3167 3168 3169 3170 3171 3171 3172 3172 3173 3173 3174 3175 3175 3176 3176 3176 3175 3174 3174 3174 3174 3173 3172 3172 3171 3171 3170 3168 3167
3137 3138 3139 3140 3141 3141 3141 3142 3143 3144 3144 3145 3145 3145 3146 3146 3147 3147 3148 3148 3148 3149 3150 3150 3151 3151 3152 3152 3152 3152 3152 3152 3152 3152 3152 3153 3153 3154 3154 3154 3155 3156 3156 3157 3158 3159 3160 3161 3161 3162 3163 3164 3164 3165 3166 3167 3168 3168 3169 3171 3171 3172 3172 3173 3173 3174 3175 3175 3176 3177 3177 3177 3176 3175 3175 3175 3175 3175 3174 3173 3173 3172 3171 3170 3169
3138 3139 3139 3139 3140 3141 3141 3142 3143 3144 3144 3145 3145 3145 3146 3147 3147 3148 3148 3148 3149 3149 3149 3150 3151 3151 3152 3152 3152 3152 3152 3152 3152 3152 3153 3153 3153 3154 3154 3154 3155 3156 3157 3157 3158 3159 3160 3160 3161 3162 3163 3164 3164 3165 3166 3167 3168 3169 3170 3171 3172 3173 3173 3173 3174 3175 3175 3176 3177 3177 3178 3178 3177 3177 3176 3177 3177 3176 3175 3175 3174 3173 3173 3172 3171
3137 3139 3139 3139 3140 3141 3141 3142 3143 3144 3144 3145 3145 3145 3146 3147 3147 3148 3148 3148 3149 3149 3150 3150 3151 3151 3152 3152 3151 3151 3151 3152 3152 3152 3153 3153 3153 3153 3154 3154 3155 3155 3156 3157 3158 3159 3159 3160 3160 3161 3162 3163 3164 3165 3166 3167 3168 3169 3170 3171 3172 3173 3174 3174 3174 3175 3176 3177 3177 3178 3178 3179 3178 3178 3178 3178 3178 3177 3177 3176 3176 3175 3174 3173 3172
3136 3137 3138 3139 3140 3141 3141 3142 3142 3143 3144 3144 3145 3145 3146 3147 3148 3148 3148 3149 3149 3150 3150 3151 3151 3151 3151 3151 3151 3151 3151 3152 3152 3153 3153 3153 3153 3153 3153 3154 3155 3155 3156 3157 3158 3158 3159 3159 3160 3161 3162 3163 3164 3165 3166 3167 3168 3169 3170 3171 3173 3174 3175 3175 3175 3176 3177 3177 3178 3178 3179 3179 3179 3179 3179 3179 3179 3179 3178 3177 3177 3176 3176 3175 3174
3135 3136 3136 3137 3138 3139 3140 3141 3141 3142 3144 3144 3145 3145 3146 3147 3148 3149 3149 3149 3150 3150 3151 3151 3151 3151 3151 3151 3151 3151 3151 3152 3152 3152 3153 3153 3153 3153 3153 3154 3155 3155 3156 3157 3157 3158 3158 3159 3159 3160 3161 3162 3163 3164 3165 3166 3167 3168 3170 3171 3173 3174 3175 3175 3175 3176 3177 3178 3178 3179 3179 3180 3180 3180 3180 3180 3180 3180 3179 3179 3178 3178 3177 3176 3176
3134 3135 3135 3136 3137 3138 3139 3139 3140 3142 3143 3144 3145 3145 3146 3147 3148 3149 3149 3150 3150 3151 3151 3151 3151 3151 3151 3151 3151 3151 3151 3152 3152 3152 3152 3153 3153 3153 3153 3154 3154 3155 3156 3156 3157 3158 3158 3159 3159 3160 3161 3161 3162 3164 3165 3166 3167 3168 3170 3171 3173 3175 3175 3175 3176 3177 3178 3178 3179 3179 3180 3180 3181 3181 3181 3181 3180 3181 3180 3180 3180 3179 3179 3178 3177
3132 3133 3135 3136 3137 3138 3138 3139 3140 3141 3143 3144 3145 3145 3146 3147 3148 3149 3149 3150 3151 3151 3152 3151 3151 3151 3151 3151 3151 3151 3151 3151 3152 3152 3152 3153 3153 3153 3153 3153 3154 3154 3155 3156 3157 3157 3158 3159 3159 3159 3160 3161 3162 3163 3164 3165 3167 3168 3170 3172 3173 3174 3175 3176 3176 3177 3178 3178 3179 3180 3180 3181 3181 3181 3182 3181 3181 3181 3181 3181 3181 3180 3180 3179 3178
3132 3133 3135 3135 3136 3138 3139 3139 3140 3141 3143 3144 3145 3145 3146 3147 3148 3149 3149 3150 3151 3151 3151 3151 3151 3151 3150 3150 3151 3151 3151 3152 3152 3152 3152 3153 3153 3153 3153 3153 3153 3154 3155 3155 3156 3157 3158 3158 3159 3159 3159 3160 3161 3163 3164 3165 3166 3167 3169 3171 3173 3174 3175 3175 3176 3177 3178 3178 3179 3179 3180 3181 3181 3182 3182 3182 3182 3182 3182 3182 3182 3181 3181 3180 3180
3132 3135 3136 3136 3136 3137 3139 3140 3140 3141 3143 3144 3144 3145 3146 3147 3147 3148 3149 3150 3151 3151 3151 3151 3151 3150 3150 3151 3151 3151 3151 3151 3152 3152 3152 3153 3153 3153 3153 3153 3153 3153 3154 3155 3156 3156 3157 3158 3158 3158 3159 3160 3161 3162 3163 3164 3165 3166 3169 3171 3173 3173 3174 3175 3176 3176 3177 3178 3178 3179 3180 3181 3181 3182 3182 3182 3182 3182 3182 3182 3182 3182 3182 3181 3181
3132 3133 3135 3137 3136 3136 3138 3140 3141 3142 3143 3143 3144 3144 3145 3146 3147 3148 3149 3150 3150 3151 3150 3150 3150 3150 3150 3150 3150 3150 3151 3151 3151 3151 3152 3152 3153 3153 3153 3153 3152 3153 3153 3154 3155 3156 3157 3157 3158 3158 3158 3159 3160 3161 3162 3162 3163 3165 3167 3170 3172 3173 3173 3174 3175 3176 3177 3177 3178 3179 3179 3180 3181 3182 3182 3182 3183 3183 3183 3183 3183 3183 3183 3182 3182
3132 3133 3134 3136 3136 3137 3138 3140 3142 3143 3143 3143 3143 3144 3145 3146 3147 3148 3149 3150 3150 3150 3150 3150 3150 3150 3150 3150 3150 3150 3150 3151 3151 3151 3151 3152 3152 3152 3152 3152 3152 3152 3152 3153 3154 3155 3156 3156 3157 3157 3157 3158 3159 3160 3161 3161 3162 3164 3166 3169 3171 3172 3172 3173 3174 3175 3176 3177 3177 3178 3179 3180 3180 3181 3182 3182 3183 3183 3183 3183 3183 3183 3183 3183 3183
3132 3133 3135 3136 3136 3137 3138 3140 3141 3142 3142 3142 3142 3143 3144 3146 3147 3148 3149 3149 3150 3150 3150 3150 3150 3150 3150 3150 3150 3150 3150 3150 3150 3151 3151 3151 3152 3152 3152 3152 3152 3152 3152 3152 3153 3154 3155 3156 3156 3156 3157 3157 3158 3158 3159 3160 3161 3162 3165 3167 3170 3171 3171 3172 3173 3174 3175 3176 3177 3177 3178 3179 3180 3180 3181 3182 3182 3183 3183 3183 3183 3183 3183 3183 3183
3132 3133 3135 3136 3136 3137 3138 3140 3141 3141 3141 3141 3142 3143 3144 3146 3147 3148 3149 3149 3149 3149 3149 3149 3149 3150 3150 3150 3150 3150 3150 3150 3150 3150 3150 3151 3151 3151 3151 3151 3152 3152 3152 3152 3152 3153 3154 3155 3155 3155 3156 3156 3156 3157 3158 3158 3159 3161 3163 3166 3169 3169 3170 3171 3172 3173 3174 3175 3176 3177 3177 3178 3179 3180 3180 3181 3182 3182 3183 3183 3183 3184 3184 3184 3183
3130 3132 3134 3135 3136 3137 3138 3139 3140 3140 3140 3141 3142 3143 3145 3146 3147 3148 3148 3148 3149 3149 3149 3149 3149 3149 3149 3149 3149 3149 3149 3149 3150 3150 3150 3150 3150 3151 3151 3151 3151 3151 3151 3151 3152 3153 3153 3154 3154 3154 3154 3155 3155 3156 3156 3157 3158 3160 3161 3165 3167 3168 3169 3170 3171 3172 3173 3174 3175 3176 3177 3177 3178 3179 3180 3181 3181 3182 3182 3183 3183 3183 3184 3184 3184
3128 3130 3131 3133 3135 3137 3138 3139 3139 3139 3140 3141 3142 3144 3145 3146 3147 3147 3148 3148 3148 3148 3148 3148 3149 3149 3148 3148 3148 3148 3149 3149 3149 3149 3149 3150 3150 3150 3150 3150 3150 3150 3151 3151 3151 3152 3153 3153 3153 3153 3153 3153 3154 3154 3155 3155 3156 3158 3159 3163 3165 3166 3167 3169 3169 3171 3172 3173 3174 3175 3176 3177 3178 3178 3179 3180 3181 3181 3182 3182 3183 3183 3183 3184 3184
3128 3129 3130 3132 3134 3135 3137 3138 3139 3139 3140 3141 3142 3144 3145 3146 3147 3147 3147 3147 3148 3148 3148 3148 3148 3148 3148 3148 3148 3148 3148 3148 3148 3149 3149 3149 3149 3150 3150 3150 3150 3150 3150 3150 3151 3151 3152 3152 3152 3152 3152 3152 3153 3153 3154 3154 3155 3156 3158 3160 3163 3165 3166 3167 3168 3169 3170 3172 3173 3174 3175 3176 3177 3178 3178 3179 3180 3180 3181 3181 3182 3182 3183 3183 3183
3128 3129 3130 3132 3134 3135 3136 3137 3139 3139 3140 3141 3142 3143 3144 3145 3146 3146 3146 3147 3147 3147 3147 3147 3147 3147 3147 3147 3147 3147 3147 3147 3148 3148 3148 3148 3149 3149 3149 3149 3149 3150 3150 3150 3150 3150 3150 3151 3151 3151 3151 3151 3152 3152 3153 3153 3153 3154 3156 3158 3161 3163 3164 3165 3166 3167 3169 3171 3172 3173 3174 3175 3176 3177 3178 3178 3179 3180 3180 3181 3181 3182 3182 3183 3183
3128 3129 3131 3132 3133 3135 3136 3137 3138 3139 3140 3141 3142 3143 3144 3145 3146 3146 3146 3146 3146 3146 3146 3146 3146 3146 3146 3145 3145 3145 3146 3146 3146 3147 3147 3147 3148 3148 3149 3149 3149 3149 3149 3149 3149 3149 3150 3150 3150 3151 3151 3150 3151 3151 3152 3152 3152 3153 3154 3156 3159 3161 3162 3163 3164 3166 3168 3169 3170 3171 3173 3174 3175 3176 3177 3177 3178 3179 3179 3180 3180 3181 3181 3182 3182
3128 3129 3130 3132 3133 3134 3135 3137 3138 3139 3140 3141 3142 3143 3144 3145 3145 3145 3145 3146 3145 3145 3145 3145 3145 3145 3144 3144 3144 3144 3145 3145 3145 3145 3146 3146 3147 3148 3148 3149 3149 3149 3149 3149 3149 3149 3149 3149 3150 3150 3150 3150 3150 3150 3151 3151 3151 3152 3153 3155 3157 3159 3160 3162 3163 3164 3166 3168 3169 3170 3171 3172 3173 3174 3175 3176 3177 3178 3178 3179 3179 3180 3181 3181 3182
3128 3129 3130 3131 3133 3134 3135 3137 3138 3139 3140 3140 3141 3142 3143 3144 3144 3144 3145 3145 3145 3144 3144 3144 3144 3144 3144 3144 3144 3144 3144 3144 3144 3144 3145 3145 3146 3147 3148 3149 3149 3149 3148 3148 3148 3149 3149 3148 3148 3149 3149 3149 3149 3150 3150 3151 3151 3151 3152 3153 3155 3157 3159 3160 3162 3163 3165 3166 3168 3169 3169 3170 3171 3173 3174 3175 3176 3177 3177 3178 3179 3179 3180 3180 3181
3127 3128 3130 3131 3132 3134 3135 3136 3137 3138 3139 3140 3141 3142 3143 3144 3144 3144 3144 3144 3144 3144 3143 3143 3143 3143 3143 3143 3143 3143 3143 3143 3143 3144 3144 3145 3146 3147 3148 3149 3149 3148 3148 3148 3148 3148 3148 3148 3148 3148 3148 3149 3149 3149 3149 3150 3150 3150 3151 3152 3153 3155 3157 3159 3160 3162 3163 3165 3166 3167 3168 3169 3170 3171 3172 3173 3174 3175 3176 3177 3177 3178 3178 3179 3180
3126 3127 3128 3130 3131 3133 3135 3136 3137 3138 3139 3140 3141 3142 3143 3143 3143 3143 3143 3143 3143 3143 3143 3142 3142 3142 3143 3143 3142 3142 3143 3143 3143 3143 3144 3145 3146 3147 3148 3148 3148 3148 3148 3148 3148 3147 3147 3147 3147 3147 3148 3148 3148 3148 3148 3148 3149 3149 3150 3151 3152 3153 3155 3157 3159 3160 3162 3163 3164 3165 3166 3167 3168 3169 3171 3172 3173 3174 3175 3175 3176 3177 3177 3178 3178
3124 3126 3127 3129 3130 3132 3133 3135 3136 3137 3138 3139 3141 3142 3143 3143 3143 3143 3142 3142 3142 3142 3141 3141 3141 3141 3141 3142 3142 3141 3142 3142 3142 3142 3143 3144 3145 3147 3147 3147 3147 3147 3147 3147 3147 3146 3146 3146 3146 3146 3147 3147 3147 3148 3148 3147 3148 3148 3149 3150 3150 3151 3154 3156 3157 3158 3160 3161 3162 3163 3165 3166 3167 3168 3169 3170 3171 3172 3173 3174 3175 3176 3176 3177 3177
3123 3125 3127 3129 3130 3131 3133 3134 3136 3137 3138 3139 3141 3141 3142 3142 3142 3142 3141 3141 3141 3141 3141 3140 3140 3140 3140 3140 3141 3141 3141 3141 3141 3142 3143 3144 3145 3146 3145 3145 3146 3146 3146 3145 3145 3145 3145 3145 3145 3146 3146 3146 3146 3147 3147 3147 3147 3147 3148 3149 3149 3150 3152 3154 3155 3156 3158 3160 3161 3162 3163 3164 3165 3166 3167 3168 3170 3171 3172 3173 3173 3174 3175 3175 3176
3123 3125 3127 3129 3131 3132 3133 3135 3136 3138 3139 3140 3140 3141 3141 3141 3141 3141 3141 3140 3140 3140 3140 3139 3139 3139 3139 3139 3139 3140 3140 3140 3140 3141 3143 3143 3144 3144 3144 3144 3144 3145 3144 3144 3144 3144 3144 3144 3145 3145 3145 3145 3146 3146 3147 3146 3146 3146 3147 3148 3148 3149 3150 3152 3153 3155 3156 3158 3159 3160 3161 3163 3164 3165 3166 3167 3168 3169 3170 3171 3172 3173 3173 3174 3175
3125 3126 3128 3130 3131 3132 3134 3136 3137 3138 3140 3140 3140 3141 3141 3141 3141 3141 3140 3139 3139 3139 3139 3139 3138 3138 3138 3138 3138 3139 3140 3140 3140 3141 3142 3142 3142 3142 3142 3143 3143 3143 3143 3143 3143 3143 3143 3144 3144 3144 3144 3145 3145 3146 3146 3146 3146 3146 3146 3147 3148 3148 3149 3150 3151 3153 3154 3156 3157 3158 3159 3161 3162 3163 3164 3165 3166 3167 3168 3169 3170 3171 3172 3173 3173
3127 3127 3129 3131 3132 3133 3136 3137 3138 3139 3140 3140 3140 3140 3140 3141 3140 3140 3139 3139 3138 3137 3137 3137 3137 3137 3137 3137 3137 3138 3139 3139 3139 3140 3140 3140 3140 3141 3141 3141 3142 3142 3142 3142 3142 3143 3143 3144 3144 3144 3144 3144 3145 3146 3146 3146 3146 3146 3146 3147 3148 3148 3149 3149 3150 3152 3153 3154 3155 3156 3157 3159 3160 3161 3163 3164 3165 3165 3166 3167 3168 3169 3170 3171 3171
3128 3129 3129 3131 3133 3135 3136 3137 3138 3139 3139 3139 3140 3140 3140 3140 3140 3140 3139 3138 3137 3136 3136 3136 3136 3136 3136 3135 3136 3137 3138 3138 3138 3138 3138 3139 3139 3140 3140 3140 3140 3140 3140 3141 3142 3142 3143 3144 3144 3144 3144 3144 3145 3145 3145 3145 3145 3145 3146 3147 3147 3148 3148 3149 3149 3150 3152 3153 3154 3155 3156 3157 3158 3160 3161 3162 3163 3164 3164 3165 3166 3167 3168 3169 3169
3128 3129 3130 3132 3133 3135 3136 3137 3137 3138 3138 3139 3139 3140 3140 3140 3140 3139 3139 3138 3136 3135 3135 3134 3134 3134 3134 3134 3134 3136 3137 3137 3136 3136 3136 3137 3138 3138 3138 3139 3139 3139 3139 3140 3141 3142 3143 3143 3144 3144 3144 3144 3144 3145 3145 3145 3145 3145 3146 3146 3147 3147 3148 3148 3148 3149 3150 3152 3153 3154 3155 3156 3158 3159 3160 3161 3161 3162 3163 3164 3164 3165 3166 3167 3168
3127 3128 3130 3132 3133 3135 3136 3137 3137 3137 3138 3138 3138 3139 3139 3139 3139 3138 3138 3137 3136 3135 3134 3133 3133 3133 3133 3133 3133 3134 3135 3135 3135 3133 3133 3135 3136 3136 3137 3137 3137 3138 3138 3139 3141 3142 3143 3143 3143 3142 3142 3143 3144 3144 3144 3144 3144 3144 3145 3145 3146 3147 3147 3147 3147 3148 3149 3150 3151 3153 3154 3155 3157 3158 3159 3160 3161 3161 3162 3162 3163 3163 3164 3165 3166
3127 3128 3129 3131 3133 3135 3136 3136 3136 3136 3137 3137 3138 3138 3138 3138 3138 3138 3138 3137 3135 3134 3132 3132 3131 3131 3132 3132 3132 3132 3133 3134 3133 3132 3132 3134 3135 3135 3135 3136 3136 3137 3137 3139 3140 3141 3142 3141 3141 3141 3141 3142 3143 3143 3143 3143 3144 3143 3143 3144 3144 3145 3146 3146 3147 3147 3148 3149 3150 3151 3152 3153 3155 3156 3157 3158 3159 3160 3161 3161 3162 3163 3163 3164 3165
3126 3127 3129 3131 3133 3135 3136 3136 3135 3136 3136 3137 3138 3138 3138 3138 3138 3138 3137 3136 3135 3133 3131 3130 3130 3130 3130 3131 3131 3131 3132 3132 3132 3131 3132 3133 3134 3134 3134 3135 3135 3135 3136 3138 3139 3140 3140 3139 3140 3140 3141 3141 3142 3142 3142 3142 3143 3143 3142 3142 3143 3144 3144 3145 3146 3146 3147 3148 3149 3150 3151 3152 3153 3154 3156 3157 3158 3158 3159 3160 3161 3161 3162 3163 3164
3126 3128 3128 3130 3133 3135 3135 3135 3135 3136 3136 3137 3137 3138 3138 3138 3138 3137 3137 3136 3134 3133 3131 3129 3129 3129 3129 3129 3130 3130 3130 3130 3130 3130 3131 3131 3132 3133 3133 3133 3134 3134 3135 3137 3138 3138 3138 3139 3139 3139 3140 3140 3141 3141 3141 3141 3141 3142 3141 3141 3142 3143 3143 3143 3144 3145 3146 3147 3148 3149 3149 3150 3151 3152 3154 3155 3156 3157 3157 3158 3159 3160 3161 3162 3162
3126 3128 3129 3129 3132 3134 3134 3134 3135 3135 3136 3137 3137 3137 3137 3137 3136 3136 3135 3134 3133 3132 3131 3129 3128 3128 3128 3128 3128 3128 3128 3129 3129 3129 3130 3130 3130 3131 3131 3132 3132 3133 3134 3135 3136 3137 3137 3138 3138 3138 3139 3139 3139 3140 3140 3140 3140 3140 3141 3141 3141 3141 3142 3142 3143 3144 3145 3146 3147 3148 3148 3149 3150 3151 3152 3153 3154 3155 3155 3156 3157 3158 3159 3160 3160
3126 3127 3128 3129 3131 3132 3133 3133 3134 3135 3135 3136 3135 3136 3135 3135 3135 3134 3134 3134 3132 3131 3130 3129 3127 3126 3126 3127 3127 3127 3126 3127 3127 3128 3128 3129 3129 3129 3130 3130 3131 3132 3133 3133 3135 3136 3136 3137 3137 3137 3138 3137 3137 3138 3138 3138 3139 3139 3140 3139 3139 3140 3140 3141 3142 3142 3143 3144 3145 3146 3147 3147 3148 3149 3150 3151 3152 3153 3154 3154 3155 3156 3157 3158 3158
3125 3126 3127 3128 3130 3131 3132 3132 3133 3134 3134 3134 3134 3134 3134 3133 3133 3133 3133 3133 3132 3131 3130 3129 3127 3126 3125 3125 3125 3125 3126 3126 3126 3126 3126 3127 3127 3127 3128 3129 3130 3131 3131 3132 3133 3134 3135 3135 3135 3136 3136 3135 3135 3135 3136 3136 3137 3138 3138 3138 3139 3139 3139 3139 3140 3141 3141 3142 3144 3145 3145 3146 3147 3147 3148 3149 3150 3151 3152 3153 3154 3154 3155 3155 3156
3124 3125 3126 3127 3129 3130 3131 3131 3132 3132 3132 3133 3133 3133 3132 3132 3132 3132 3132 3132 3132 3132 3131 3130 3128 3127 3126 3125 3124 3124 3125 3125 3125 3125 3125 3125 3125 3125 3126 3128 3128 3129 3129 3130 3131 3132 3133 3133 3134 3134 3133 3134 3134 3134 3134 3134 3136 3137 3137 3137 3138 3138 3138 3138 3138 3139 3140 3141 3142 3143 3143 3144 3145 3146 3147 3147 3148 3149 3150 3151 3151 3152 3153 3153 3154
3122 3124 3125 3126 3128 3129 3130 3130 3130 3130 3131 3132 3132 3132 3131 3132 3132 3132 3132 3131 3131 3131 3130 3129 3128 3127 3126 3125 3124 3124 3124 3124 3124 3124 3124 3124 3124 3124 3125 3126 3126 3126 3127 3128 3129 3130 3131 3131 3132 3131 3130 3131 3133 3134 3133 3132 3134 3136 3137 3137 3137 3137 3137 3137 3137 3138 3138 3139 3140 3141 3142 3143 3144 3144 3144 3144 3144 3145 3146 3147 3148 3150 3150 3151 3152
3120 3122 3123 3125 3127 3128 3128 3128 3129 3129 3130 3131 3131 3131 3131 3131 3132 3132 3132 3131 3131 3130 3130 3129 3128 3127 3126 3125 3124 3123 3123 3123 3123 3123 3123 3123 3123 3123 3124 3124 3124 3124 3125 3126 3127 3128 3129 3129 3129 3129 3129 3130 3132 3132 3132 3132 3132 3135 3136 3136 3136 3136 3136 3136 3136 3137 3137 3138 3138 3139 3140 3141 3142 3142 3142 3142 3141 3141 3141 3142 3144 3146 3147 3148 3149
3119 3120 3121 3123 3125 3126 3126 3126 3127 3128 3129 3130 3131 3131 3131 3131 3132 3133 3132 3132 3131 3131 3130 3129 3128 3127 3126 3125 3124 3123 3122 3122 3122 3122 3122 3122 3122 3122 3122 3123 3123 3123 3123 3124 3125 3126 3127 3127 3128 3128 3128 3129 3130 3131 3131 3131 3132 3133 3134 3134 3134 3135 3135 3135 3136 3136 3136 3137 3137 3137 3138 3139 3140 3140 3141 3141 3140 3140 3141 3140 3141 3143 3144 3146 3147
3118 3119 3120 3121 3122 3124 3124 3125 3126 3127 3129 3130 3130 3131 3131 3132 3132 3133 3133 3132 3131 3131 3131 3129 3128 3126 3125 3125 3124 3123 3122 3122 3122 3122 3122 3122 3121 3121 3121 3122 3122 3122 3122 3123 3123 3124 3125 3125 3126 3127 3127 3128 3129 3129 3129 3131 3132 3132 3132 3132 3133 3134 3134 3135 3135 3135 3136 3136 3136 3136 3137 3138 3138 3138 3139 3139 3139 3139 3140 3140 3140 3141 3143 3144 3145
3118 3119 3119 3120 3121 3122 3123 3124 3125 3127 3129 3130 3130 3131 3131 3132 3133 3133 3133 3132 3131 3131 3131 3130 3128 3126 3125 3125 3124 3123 3122 3122 3122 3122 3121 3121 3121 3121 3121 3121 3121 3121 3122 3122 3122 3123 3123 3124 3124 3125 3126 3127 3127 3128 3128 3130 3131 3131 3131 3131 3132 3133 3134 3134 3134 3134 3135 3135 3135 3135 3136 3137 3137 3137 3137 3138 3138 3138 3138 3138 3138 3139 3141 3141 3142
3118 3118 3119 3120 3121 3122 3123 3124 3125 3127 3129 3130 3131 3131 3132 3132 3133 3133 3132 3132 3131 3131 3131 3130 3128 3127 3126 3125 3124 3123 3123 3123 3122 3122 3121 3121 3121 3121 3121 3121 3121 3121 3122 3122 3122 3122 3123 3123 3124 3124 3125 3125 3126 3127 3128 3129 3129 3129 3130 3131 3131 3132 3132 3132 3132 3133 3134 3134 3135 3135 3135 3135 3135 3136 3137 3137 3137 3137 3137 3137 3138 3138 3139 3139 3141
3117 3118 3119 3120 3120 3121 3122 3124 3125 3128 3129 3130 3131 3132 3132 3132 3132 3132 3132 3132 3132 3132 3131 3130 3129 3128 3126 3125 3124 3124 3123 3123 3123 3123 3122 3122 3122 3121 3122 3122 3122 3122 3122 3122 3123 3123 3123 3123 3124 3124 3124 3124 3125 3126 3127 3128 3128 3129 3129 3130 3130 3131 3131 3131 3131 3132 3132 3133 3134 3134 3135 3134 3134 3135 3137 3137 3136 3136 3136 3137 3137 3138 3139 3139 3139
3116 3117 3118 3119 3120 3121 3122 3122 3124 3127 3129 3130 3131 3131 3131 3131 3131 3131 3131 3131 3131 3132 3131 3130 3129 3128 3127 3126 3125 3124 3124 3124 3124 3123 3123 3123 3122 3122 3122 3122 3122 3122 3122 3123 3123 3123 3123 3123 3124 3124 3124 3124 3125 3125 3126 3127 3128 3128 3128 3129 3129 3129 3130 3130 3130 3131 3131 3132 3132 3133 3133 3133 3133 3135 3135 3135 3135 3136 3136 3136 3136 3137 3137 3138 3138